When you browse on this site, cookies collect data to enhance your experience and personalize the content and advertising you see.
Visit our Privacy Policy to learn more. By continuing to use the site, you agree to this use of cookies and data.
  • In Romania
  • List of Countries
  • For 7 days
  • Water Temperature
  • Satellite Maps
  • Weather Map
  • Weather Widgets
  • user-avatar
    Login

    Hourly Weather Aron

    Today, 25 April, Thursday

    Time Temperature Precipitation Wind Pressure Humidity
    00:00 +7°C° 0 mm 3 mps 663 mmHg 68%
    01:00 +7°C° 0.1 mm 3 mps 663 mmHg 71%
    02:00 +7°C° 0.1 mm 3 mps 663 mmHg 74%
    03:00 +6°C° 0.1 mm 2 mps 662 mmHg 77%
    04:00 +6°C° 0.7 mm 2 mps 663 mmHg 80%
    05:00 +7°C° 0.7 mm 2 mps 663 mmHg 83%
    06:00 +7°C° 0 mm 3 mps 663 mmHg 86%
    07:00 +8°C° 0.5 mm 3 mps 664 mmHg 82%
    08:00 +9°C° 0.5 mm 2 mps 664 mmHg 79%
    09:00 +10°C° 0.5 mm 2 mps 665 mmHg 75%
    10:00 +10°C° 0.4 mm 2 mps 665 mmHg 70%
    11:00 +12°C° 0.4 mm 2 mps 666 mmHg 64%
    12:00 +13°C° 0.4 mm 2 mps 666 mmHg 59%
    13:00 +12°C° 0.8 mm 2 mps 666 mmHg 65%
    14:00 +10°C° 0.8 mm 2 mps 665 mmHg 71%
    15:00 +9°C° 0.8 mm 2 mps 665 mmHg 77%
    16:00 +8°C° 1.1 mm 2 mps 665 mmHg 81%
    17:00 +8°C° 1.1 mm 1 mps 666 mmHg 85%
    18:00 +7°C° 1.1 mm 1 mps 666 mmHg 89%
    19:00 +6°C° 0.4 mm 1 mps 666 mmHg 89%
    20:00 +4°C° 0.4 mm 2 mps 667 mmHg 89%
    21:00 +3°C° 0.4 mm 2 mps 667 mmHg 89%
    22:00 +3°C° 0.2 mm 2 mps 667 mmHg 88%
    23:00 +2°C° 0.2 mm 2 mps 668 mmHg 88%

    Tomorrow, 26 April, Friday

    Time Temperature Precipitation Wind Pressure Humidity
    00:00 +2°C° 0.2 mm 2 mps 668 mmHg 87%
    01:00 +2°C° 0.3 mm 2 mps 668 mmHg 88%
    02:00 +2°C° 0.3 mm 2 mps 669 mmHg 89%
    03:00 +2°C° 0.3 mm 2 mps 669 mmHg 90%
    04:00 +3°C° 0.3 mm 1 mps 670 mmHg 90%
    05:00 +3°C° 0.3 mm 1 mps 670 mmHg 90%
    06:00 +3°C° 0.3 mm 1 mps 671 mmHg 90%
    07:00 +4°C° 0 mm 2 mps 672 mmHg 80%
    08:00 +6°C° 0 mm 2 mps 673 mmHg 70%
    09:00 +8°C° 0 mm 3 mps 674 mmHg 61%
    10:00 +8°C° 0.4 mm 3 mps 674 mmHg 66%
    11:00 +8°C° 0.4 mm 3 mps 674 mmHg 72%
    12:00 +8°C° 0.4 mm 3 mps 674 mmHg 77%
    13:00 +8°C° 0.2 mm 3 mps 674 mmHg 77%
    14:00 +8°C° 0.2 mm 3 mps 675 mmHg 76%
    15:00 +8°C° 0.2 mm 3 mps 675 mmHg 75%
    16:00 +8°C° 0.1 mm 3 mps 675 mmHg 78%
    17:00 +7°C° 0.1 mm 3 mps 675 mmHg 81%
    18:00 +6°C° 0.1 mm 2 mps 675 mmHg 84%
    19:00 +5°C° 0 mm 2 mps 675 mmHg 88%
    20:00 +5°C° 0 mm 1 mps 676 mmHg 92%
    21:00 +4°C° 0 mm 1 mps 676 mmHg 96%
    22:00 +3°C° 0 mm 1 mps 676 mmHg 94%
    23:00 +3°C° 0 mm 1 mps 676 mmHg 92%

    Day after tomorrow, 27 April, Saturday

    Time Temperature Precipitation Wind Pressure Humidity
    00:00 +2°C° 0 mm 1 mps 676 mmHg 90%
    01:00 +2°C° 0 mm 1 mps 676 mmHg 83%
    02:00 +2°C° 0 mm 1 mps 676 mmHg 76%
    03:00 +2°C° 0 mm 1 mps 676 mmHg 69%
    04:00 +3°C° 0 mm 1 mps 676 mmHg 70%
    05:00 +3°C° 0 mm 1 mps 676 mmHg 72%
    06:00 +4°C° 0 mm 1 mps 676 mmHg 73%
    07:00 +6°C° 0 mm 1 mps 677 mmHg 73%
    08:00 +8°C° 0 mm 1 mps 677 mmHg 74%
    09:00 +8°C° 0 mm 2 mps 678 mmHg 75%
    10:00 +9°C° 0 mm 2 mps 678 mmHg 73%
    11:00 +10°C° 0 mm 2 mps 678 mmHg 72%
    12:00 +10°C° 0 mm 2 mps 678 mmHg 71%
    13:00 +10°C° 0 mm 3 mps 677 mmHg 72%
    14:00 +10°C° 0 mm 3 mps 677 mmHg 73%
    15:00 +10°C° 0 mm 3 mps 677 mmHg 74%
    16:00 +9°C° 0 mm 3 mps 677 mmHg 78%
    17:00 +8°C° 0 mm 2 mps 677 mmHg 81%
    18:00 +8°C° 0 mm 2 mps 677 mmHg 85%
    19:00 +6°C° 0 mm 2 mps 677 mmHg 89%
    20:00 +6°C° 0 mm 1 mps 677 mmHg 93%
    21:00 +5°C° 0 mm 1 mps 677 mmHg 97%
    22:00 +4°C° 0 mm 1 mps 677 mmHg 95%
    23:00 +3°C° 0 mm 1 mps 677 mmHg 94%

    28 April, Sunday

    Time Temperature Precipitation Wind Pressure Humidity
    00:00 +2°C° 0 mm 1 mps 676 mmHg 93%
    01:00 +2°C° 0 mm 1 mps 676 mmHg 91%
    02:00 +2°C° 0 mm 1 mps 676 mmHg 89%
    03:00 +2°C° 0 mm 1 mps 676 mmHg 87%
    04:00 +2°C° 0 mm 1 mps 676 mmHg 83%
    05:00 +2°C° 0 mm 1 mps 675 mmHg 80%
    06:00 +3°C° 0 mm 1 mps 675 mmHg 77%
    07:00 +5°C° 0 mm 1 mps 676 mmHg 72%
    08:00 +6°C° 0 mm 2 mps 676 mmHg 68%
    09:00 +8°C° 0 mm 2 mps 677 mmHg 64%
    10:00 +9°C° 0 mm 2 mps 676 mmHg 64%
    11:00 +9°C° 0 mm 2 mps 676 mmHg 64%
    12:00 +10°C° 0 mm 2 mps 676 mmHg 64%
    13:00 +10°C° 0 mm 2 mps 675 mmHg 65%
    14:00 +10°C° 0 mm 2 mps 675 mmHg 66%
    15:00 +10°C° 0 mm 2 mps 674 mmHg 68%
    16:00 +9°C° 0 mm 2 mps 674 mmHg 74%
    17:00 +8°C° 0 mm 2 mps 674 mmHg 79%
    18:00 +8°C° 0 mm 1 mps 673 mmHg 85%
    19:00 +7°C° 0 mm 1 mps 674 mmHg 88%
    20:00 +6°C° 0 mm 1 mps 674 mmHg 91%
    21:00 +5°C° 0 mm 1 mps 674 mmHg 94%
    22:00 +4°C° 0 mm 1 mps 674 mmHg 93%
    23:00 +4°C° 0 mm 1 mps 673 mmHg 91%

    29 April, Monday

    Time Temperature Precipitation Wind Pressure Humidity
    00:00 +3°C° 0 mm 1 mps 673 mmHg 90%
    01:00 +3°C° 0 mm 1 mps 673 mmHg 90%
    02:00 +3°C° 0 mm 1 mps 673 mmHg 89%
    03:00 +3°C° 0 mm 1 mps 672 mmHg 89%
    04:00 +3°C° 0 mm 1 mps 672 mmHg 87%
    05:00 +3°C° 0 mm 0 mps 673 mmHg 84%
    06:00 +3°C° 0 mm 0 mps 673 mmHg 82%
    07:00 +7°C° 0 mm 1 mps 673 mmHg 74%
    08:00 +9°C° 0 mm 1 mps 674 mmHg 66%
    09:00 +11°C° 0 mm 1 mps 674 mmHg 57%
    10:00 +12°C° 0 mm 1 mps 674 mmHg 55%
    11:00 +13°C° 0 mm 2 mps 673 mmHg 53%
    12:00 +14°C° 0 mm 2 mps 673 mmHg 51%
    13:00 +14°C° 0 mm 2 mps 673 mmHg 53%
    14:00 +14°C° 0 mm 2 mps 672 mmHg 56%
    15:00 +13°C° 0 mm 2 mps 672 mmHg 58%
    16:00 +12°C° 0 mm 2 mps 671 mmHg 66%
    17:00 +11°C° 0 mm 1 mps 671 mmHg 73%
    18:00 +10°C° 0 mm 1 mps 670 mmHg 81%
    19:00 +8°C° 0 mm 1 mps 670 mmHg 85%
    20:00 +7°C° 0 mm 1 mps 671 mmHg 89%
    21:00 +6°C° 0 mm 1 mps 671 mmHg 94%
    22:00 +6°C° 0 mm 1 mps 670 mmHg 94%
    23:00 +5°C° 0 mm 1 mps 670 mmHg 94%

    30 April, Tuesday

    Time Temperature Precipitation Wind Pressure Humidity
    00:00 +4°C° 0 mm 0 mps 670 mmHg 94%
    01:00 +4°C° 0 mm 0 mps 670 mmHg 94%
    02:00 +4°C° 0 mm 0 mps 669 mmHg 93%
    03:00 +4°C° 0 mm 0 mps 669 mmHg 93%
    04:00 +6°C° 0 mm 1 mps 669 mmHg 91%
    05:00 +6°C° 0 mm 1 mps 669 mmHg 89%
    06:00 +6°C° 0 mm 1 mps 669 mmHg 88%
    07:00 +8°C° 0 mm 1 mps 670 mmHg 81%
    08:00 +9°C° 0 mm 1 mps 670 mmHg 73%
    09:00 +10°C° 0 mm 2 mps 670 mmHg 66%
    10:00 +12°C° 0 mm 2 mps 670 mmHg 61%
    11:00 +12°C° 0 mm 2 mps 670 mmHg 56%
    12:00 +12°C° 0 mm 3 mps 670 mmHg 51%
    13:00 +12°C° 0 mm 3 mps 670 mmHg 50%
    14:00 +12°C° 0 mm 3 mps 670 mmHg 48%
    15:00 +13°C° 0 mm 3 mps 669 mmHg 47%
    16:00 +12°C° 0 mm 2 mps 669 mmHg 55%
    17:00 +11°C° 0 mm 1 mps 669 mmHg 63%
    18:00 +10°C° 0 mm 1 mps 668 mmHg 71%
    19:00 +8°C° 0 mm 1 mps 668 mmHg 73%
    20:00 +6°C° 0 mm 1 mps 669 mmHg 76%
    21:00 +5°C° 0 mm 1 mps 669 mmHg 79%
    22:00 +5°C° 0 mm 1 mps 668 mmHg 72%
    23:00 +4°C° 0 mm 2 mps 668 mmHg 65%
    Show more